Weather History for KMNE - October, 2012

Change the Weather History Date:

Wednesday, October 24, 2012

  Actual Average (KBAD) Record (KBAD)
Temperature  
Mean Temperature 73 °F -  
Max Temperature 83 °F 73 °F 89 °F (2001)
Min Temperature 63 °F 52 °F 39 °F (1996)
Cooling Degree Days 8    
Growing Degree Days 23 (Base 50)    
Moisture  
Dew Point 64 °F    
Average Humidity 76    
Maximum Humidity 91    
Minimum Humidity 54    
Precipitation  
Precipitation 0.00 in - - ()
Sea Level Pressure  
Sea Level Pressure 30.00 in    
Wind  
Wind Speed 4 mph ()    
Max Wind Speed 10 mph    
Max Gust Speed -    
Visibility 10.0 miles    
Events      
Averages and records for this station are not official NWS values.
T = Trace of Precipitation, MM = Missing Value Source: Averaged Metar Reports

Daily Weather History Graph

Daily Weather History Graph

Search for Another Location

Airport or City:

Trip Planner

Search our weather history database for the weather conditions in past years. The results will help you decide how hot, cold, wet, or windy it might be!

Date:

Astronomy

Oct. 24, 2012 Rise Set
Actual Time 7:24 AM CDT 6:29 PM CDT
Civil Twilight 6:59 AM CDT 6:54 PM CDT
Nautical Twilight 6:30 AM CDT 7:23 PM CDT
Astronomical Twilight 6:01 AM CDT 7:52 PM CDT
Moon 3:32 PM CDT (10/24) 2:35 AM CDT (10/24)
Length of Visible Light 11h 55m
Length of Day
11h 05m
Waxing Gibbous, 76% of the Moon is Illuminated
Oct 24
Waxing Gibbous
Oct 29
Full
Nov 6
Last Quarter
Nov 13
New
Nov 20
First Quarter

Hourly Weather History & Observations

Time (CDT) Temp. Heat Index Dew Point Humidity Pressure Visibility Wind Dir Wind Speed Gust Speed Precip Events Conditions
12:15 AM 68.4 °F - 62.2 °F 81% 30.00 in 10.0 mi SE 4.6 mph - N/A   Clear
12:35 AM 68.5 °F - 62.2 °F 80% 30.00 in 10.0 mi SSE 3.5 mph - N/A   Clear
1:35 AM 68.0 °F - 61.7 °F 80% 30.01 in 10.0 mi Calm Calm - N/A   Clear
1:55 AM 67.6 °F - 61.7 °F 81% 30.01 in 10.0 mi Calm Calm - N/A   Clear
2:15 AM 67.1 °F - 61.7 °F 83% 30.00 in 10.0 mi Calm Calm - N/A   Clear
2:35 AM 66.2 °F - 61.7 °F 85% 30.01 in 10.0 mi Calm Calm - N/A   Clear
2:55 AM 65.3 °F - 61.3 °F 87% 30.01 in 10.0 mi Calm Calm - N/A   Clear
3:15 AM 64.0 °F - 60.8 °F 89% 30.01 in 10.0 mi Calm Calm - N/A   Clear
3:35 AM 63.7 °F - 61.0 °F 91% 30.02 in 10.0 mi SE 3.5 mph - N/A   Clear
3:55 AM 64.0 °F - 60.6 °F 89% 30.02 in 10.0 mi Calm Calm - N/A   Clear
4:15 AM 63.3 °F - 60.3 °F 90% 30.02 in 10.0 mi SE 3.5 mph - N/A   Clear
4:35 AM 64.0 °F - 61.2 °F 90% 30.02 in 10.0 mi SE 4.6 mph - N/A   Clear
4:55 AM 64.4 °F - 61.5 °F 90% 30.02 in 10.0 mi SE 3.5 mph - N/A   Clear
5:15 AM 64.2 °F - 61.2 °F 90% 30.02 in 10.0 mi SE 3.5 mph - N/A   Clear
5:35 AM 64.2 °F - 61.3 °F 90% 30.02 in 10.0 mi SE 3.5 mph - N/A   Clear
5:55 AM 65.3 °F - 62.1 °F 89% 30.03 in 10.0 mi SSE 3.5 mph - N/A   Clear
6:15 AM 64.4 °F - 61.7 °F 91% 30.04 in 10.0 mi SE 4.6 mph - N/A   Clear
6:35 AM 64.4 °F - 61.3 °F 90% 30.04 in 10.0 mi SE 3.5 mph - N/A   Clear
6:55 AM 63.7 °F - 61.2 °F 91% 30.04 in 10.0 mi SE 3.5 mph - N/A   Clear
7:15 AM 63.7 °F - 61.2 °F 91% 30.05 in 10.0 mi SE 3.5 mph - N/A   Clear
7:35 AM 63.9 °F - 61.3 °F 91% 30.05 in 10.0 mi Calm Calm - N/A   Clear
7:55 AM 64.4 °F - 61.7 °F 91% 30.05 in 10.0 mi SE 4.6 mph - N/A   Clear
8:15 AM 65.5 °F - 62.2 °F 89% 30.06 in 10.0 mi SE 3.5 mph - N/A   Clear
8:55 AM 68.9 °F - 64.2 °F 85% 30.07 in 10.0 mi SSE 4.6 mph - N/A   Clear
9:35 AM 71.2 °F - 65.5 °F 82% 30.07 in 10.0 mi SE 6.9 mph - N/A   Scattered Clouds
9:55 AM 71.6 °F - 65.5 °F 81% 30.07 in 10.0 mi SE 6.9 mph - N/A   Scattered Clouds
10:15 AM 71.6 °F - 65.7 °F 81% 30.08 in 10.0 mi SSE 4.6 mph - N/A   Mostly Cloudy
10:35 AM 72.9 °F - 66.2 °F 80% 30.08 in 7.0 mi SSE 4.6 mph - N/A   Scattered Clouds
10:55 AM 75.0 °F - 66.6 °F 75% 30.07 in 10.0 mi SE 6.9 mph - N/A   Scattered Clouds
11:15 AM 76.3 °F - 66.7 °F 72% 30.07 in 10.0 mi SSE 5.8 mph - N/A   Scattered Clouds
11:35 AM 76.5 °F - 67.1 °F 73% 30.07 in 10.0 mi SE 8.1 mph - N/A   Scattered Clouds
11:55 AM 77.2 °F - 67.1 °F 71% 30.06 in 10.0 mi SE 6.9 mph - N/A   Scattered Clouds
12:15 PM 79.5 °F - 66.7 °F 65% 30.05 in 10.0 mi SSE 5.8 mph - N/A   Clear
12:35 PM 80.1 °F 82.1 °F 65.8 °F 62% 30.04 in 10.0 mi SSE 10.4 mph - N/A   Clear
12:55 PM 80.2 °F 82.2 °F 65.5 °F 61% 30.03 in 10.0 mi SE 8.1 mph - N/A   Clear
1:15 PM 80.8 °F 82.8 °F 65.7 °F 60% 30.02 in 10.0 mi South 4.6 mph - N/A   Scattered Clouds
1:35 PM 81.7 °F 83.8 °F 66.2 °F 59% 30.01 in 10.0 mi South 5.8 mph - N/A   Scattered Clouds
2:15 PM 81.9 °F 83.9 °F 65.7 °F 58% 29.99 in 10.0 mi SSE 6.9 mph - N/A   Scattered Clouds
2:35 PM 83.7 °F 85.8 °F 65.8 °F 55% 29.99 in 10.0 mi SSE 9.2 mph - N/A   Scattered Clouds
2:55 PM 82.8 °F 84.3 °F 64.8 °F 54% 29.98 in 10.0 mi South 4.6 mph - N/A   Scattered Clouds
3:15 PM 81.5 °F 83.1 °F 64.6 °F 56% 29.98 in 10.0 mi SSE 6.9 mph - N/A   Scattered Clouds
3:35 PM 82.9 °F 84.8 °F 65.5 °F 55% 29.97 in 10.0 mi SE 10.4 mph - N/A   Scattered Clouds
3:55 PM 82.0 °F 84.1 °F 65.8 °F 58% 29.96 in 10.0 mi ESE 6.9 mph - N/A   Mostly Cloudy
4:15 PM 80.4 °F 82.3 °F 65.5 °F 60% 29.96 in 10.0 mi ESE 6.9 mph - N/A   Mostly Cloudy
4:35 PM 81.7 °F 83.6 °F 65.7 °F 58% 29.96 in 10.0 mi SE 5.8 mph - N/A   Mostly Cloudy
4:55 PM 81.5 °F 83.6 °F 65.8 °F 59% 29.95 in 10.0 mi SE 6.9 mph - N/A   Scattered Clouds
5:15 PM 81.1 °F 83.1 °F 65.7 °F 59% 29.95 in 10.0 mi SE 6.9 mph - N/A   Clear
5:35 PM 80.4 °F 82.3 °F 65.3 °F 60% 29.95 in 10.0 mi SE 6.9 mph - N/A   Clear
5:55 PM 79.3 °F - 65.3 °F 62% 29.94 in 10.0 mi SE 6.9 mph - N/A   Clear
6:15 PM 77.5 °F - 65.5 °F 66% 29.94 in 10.0 mi SE 3.5 mph - N/A   Clear
6:35 PM 75.6 °F - 65.7 °F 71% 29.95 in 10.0 mi Calm Calm - N/A   Clear
6:55 PM 74.5 °F - 65.5 °F 73% 29.95 in 10.0 mi Calm Calm - N/A   Clear
7:15 PM 73.9 °F - 65.7 °F 75% 29.95 in 10.0 mi East 3.5 mph - N/A   Clear
7:35 PM 72.5 °F - 65.7 °F 79% 29.95 in 10.0 mi Calm Calm - N/A   Clear
7:55 PM 73.0 °F - 65.7 °F 78% 29.95 in 10.0 mi ESE 3.5 mph - N/A   Clear
8:15 PM 72.3 °F - 65.7 °F 79% 29.95 in 10.0 mi ESE 3.5 mph - N/A   Clear
8:35 PM 72.5 °F - 65.7 °F 79% 29.95 in 10.0 mi ESE 3.5 mph - N/A   Clear
8:55 PM 72.1 °F - 65.5 °F 79% 29.95 in 10.0 mi ESE 4.6 mph - N/A   Clear
9:15 PM 72.7 °F - 65.5 °F 78% 29.95 in 10.0 mi SE 4.6 mph - N/A   Clear
9:35 PM 72.7 °F - 65.3 °F 78% 29.96 in 10.0 mi ESE 4.6 mph - N/A   Clear
9:55 PM 72.5 °F - 65.3 °F 78% 29.96 in 10.0 mi SE 3.5 mph - N/A   Scattered Clouds
10:15 PM 72.5 °F - 65.3 °F 78% 29.96 in 10.0 mi SE 6.9 mph - N/A   Mostly Cloudy
10:35 PM 72.1 °F - 65.1 °F 78% 29.96 in 10.0 mi SE 4.6 mph - N/A   Scattered Clouds
10:55 PM 72.1 °F - 64.9 °F 78% 29.95 in 10.0 mi SE 5.8 mph - N/A   Scattered Clouds
11:15 PM 71.8 °F - 64.8 °F 78% 29.95 in 10.0 mi SE 4.6 mph - N/A   Scattered Clouds
11:35 PM 71.6 °F - 64.6 °F 78% 29.94 in 10.0 mi SE 3.5 mph - N/A   Clear
11:55 PM 70.9 °F - 64.4 °F 80% 29.94 in 10.0 mi SSE 3.5 mph - N/A   Clear